User: anonymous   Login
Location: Pine Mountain Observatory
(43.7910°N, 120.9377°W)
Time: 13:17:36
(UTC-07:00)
Language:

Altair - Orbit

View from above orbital plane
View from above orbital plane
View from above satellite
View from above satellite

Ground track
Ground track

The orbit data is extracted from the following two-line orbital elements,

1    50U 60009B   19139.44618352 -.00000107  00000-0 -21504-3 0  9991
2    50  47.2313 267.2354 0114046 228.3098 130.7887 12.20108564622445
Epoch (UTC): 19 May 2019 10:42:30
Eccentricity: 0.0114046
inclination: 47.2313°
perigee height: 1501 km
apogee height: 1683 km
right ascension of ascending node: 267.2354°
argument of perigee: 228.3098°
revolutions per day: 12.20108564
mean anomaly at epoch: 130.7887°
orbit number at epoch: 62244

The dashed part of the orbit path shows where the satellite is in the earth's shadow,  

DLR